Weather History for Hall Beach, NU

Change the Weather History Date:

Saturday, October 1, 2011

  Actual Average Record
Temperature  
Mean Temperature 24 °F -  
Max Temperature 26 °F 27 °F 35 °F (1998)
Min Temperature 21 °F 21 °F 12 °F (2005)
Degree Days  
Heating Degree Days 42    
Moisture  
Dew Point 19 °F    
Average Humidity 81    
Maximum Humidity 93    
Minimum Humidity 66    
Precipitation  
Precipitation 0.00 in - - ()
Sea Level Pressure  
Sea Level Pressure 29.72 in    
Wind  
Wind Speed 14 mph ()    
Max Wind Speed 24 mph    
Max Gust Speed 25 mph    
Visibility 10.9 miles    
Events      
Averages and records for this station are not official NWS values.
T = Trace of Precipitation, MM = Missing Value Source: Averaged Metar Reports

Daily Weather History Graph

Daily Weather History Graph

Search for Another Location

Airport:

Trip Planner

Search our weather history database for the weather conditions in past years. The results will help you decide how hot, cold, wet, or windy it might be!

Date:

Astronomy

Oct. 01, 2011 Rise Set
Actual Time 7:38 AM EDT 6:49 PM EDT
Civil Twilight 6:40 AM EDT 7:46 PM EDT
Nautical Twilight 5:31 AM EDT 8:54 PM EDT
Astronomical Twilight 4:12 AM EDT 10:13 PM EDT
Moon No Moon Rise No Moon Set
Length of Visible Light 13h 05m
Length of Day
11h 11m
Waxing Crescent, 24% of the Moon is Illuminated
Oct 1
Waxing Crescent
Oct 3
First Quarter
Oct 11
Full
Oct 19
Last Quarter
Oct 26
New

Hourly Weather History & Observations

Time (EDT) Temp. Windchill Dew Point Humidity Pressure Visibility Wind Dir Wind Speed Gust Speed Precip Events Conditions
12:00 AM 26.6 °F 13.8 °F 21.2 °F 80% 29.73 in 9.0 mi NW 17.3 mph 25.3 mph N/A   Overcast
1:00 AM 26.6 °F 13.8 °F 21.2 °F 80% 29.73 in 9.0 mi WNW 17.3 mph - N/A   Overcast
1:39 AM 24.8 °F 12.4 °F 21.2 °F 86% 29.72 in 9.0 mi WNW 15.0 mph - N/A   Partly Cloudy
2:00 AM 25 °F - 21 °F 80% 29.73 in 9 mi WNW 18.4 mph - -  
2:00 AM 24.8 °F 10.7 °F 21.2 °F 86% 29.73 in 9.0 mi WNW 19.6 mph - N/A   Partly Cloudy
2:15 AM 26.6 °F 13.1 °F 21.2 °F 80% 29.72 in 9.0 mi WNW 19.6 mph - N/A   Mostly Cloudy
3:02 AM 24.8 °F 10.7 °F 21.2 °F 86% 29.72 in 9.0 mi NNW 19.6 mph - N/A   Mostly Cloudy
3:19 AM 23.0 °F 7.6 °F 19.4 °F 86% 29.72 in 9.0 mi NNW 21.9 mph - N/A   Partly Cloudy
4:00 AM 23.0 °F 8.7 °F 17.6 °F 80% 29.73 in 9.0 mi NW 18.4 mph 24.2 mph N/A   Clear
4:46 AM 23.0 °F 6.9 °F 17.6 °F 80% 29.72 in 9.0 mi NNW 24.2 mph - N/A   Mostly Cloudy
5:00 AM 22 °F - 18 °F 79% 29.73 in 9 mi NNW 21.9 mph - -   Overcast
5:00 AM 23.0 °F 8.0 °F 17.6 °F 80% 29.73 in 9.0 mi NNW 20.7 mph - N/A   Overcast
6:00 AM 23.0 °F 8.0 °F 19.4 °F 86% 29.73 in 9.0 mi NNW 20.7 mph - N/A   Overcast
7:00 AM 23.0 °F 9.2 °F 19.4 °F 86% 29.73 in 9.0 mi NW 17.3 mph - N/A   Overcast
8:00 AM 24 °F - 19 °F 72% 29.73 in 9 mi NNW 16.1 mph - -   Overcast
8:00 AM 23.0 °F 9.6 °F 19.4 °F 86% 29.72 in 15.0 mi NNW 16.1 mph - N/A   Overcast
9:00 AM 23.0 °F 9.2 °F 17.6 °F 80% 29.72 in 15.0 mi NW 17.3 mph - N/A   Mostly Cloudy
11:00 AM 24 °F - 17 °F 66% 29.71 in 9 mi NW 13.8 mph - -  
11:00 AM 23.0 °F 10.6 °F 17.6 °F 80% 29.71 in 15.0 mi WNW 13.8 mph - N/A   Scattered Clouds
12:00 PM 23.0 °F 10.6 °F 17.6 °F 80% 29.71 in 15.0 mi WNW 13.8 mph - N/A   Scattered Clouds
1:00 PM 24.8 °F 13.4 °F 17.6 °F 74% 29.71 in 15.0 mi WNW 12.7 mph - N/A   Partly Cloudy
2:00 PM 24 °F - 17 °F 67% 29.71 in 9 mi NW 9.2 mph - -  
2:00 PM 24.8 °F 16.1 °F 17.6 °F 74% 29.71 in 15.0 mi NW 8.1 mph - N/A   Partly Cloudy
3:00 PM 24.8 °F 16.9 °F 17.6 °F 74% 29.71 in 15.0 mi North 6.9 mph - N/A   Partly Cloudy
4:00 PM 24.8 °F 19.1 °F 17.6 °F 74% 29.70 in 15.0 mi WNW 4.6 mph - N/A   Scattered Clouds
5:00 PM 24 °F - 18 °F 68% 29.70 in 9 mi NW 4.6 mph - -  
5:00 PM 24.8 °F 19.1 °F 17.6 °F 74% 29.70 in 15.0 mi NW 4.6 mph - N/A   Scattered Clouds
7:00 PM 21.2 °F 12.6 °F 19.4 °F 93% 29.71 in 15.0 mi WNW 6.9 mph - N/A   Scattered Clouds
8:00 PM 21 °F - 19 °F 88% 29.71 in 9 mi NW 5.8 mph - -  
8:00 PM 21.2 °F 13.6 °F 19.4 °F 93% 29.71 in 15.0 mi NW 5.8 mph - N/A   Scattered Clouds
9:00 PM 21.2 °F 14.9 °F 19.4 °F 93% 29.70 in 9.0 mi NNW 4.6 mph - N/A   Clear
10:00 PM 21.2 °F 14.9 °F 17.6 °F 86% 29.70 in 9.0 mi North 4.6 mph - N/A   Clear
10:37 PM 23.0 °F 17.0 °F 19.4 °F 86% 29.69 in 9.0 mi NNE 4.6 mph - N/A   Mostly Cloudy
11:00 PM 24 °F - 19 °F 74% 29.70 in 9 mi NNE 5.8 mph - -  
11:00 PM 23.0 °F 15.8 °F 19.4 °F 86% 29.70 in 9.0 mi NNE 5.8 mph - N/A   Mostly Cloudy